Regional Weather Roundup
Issued by NWS

Home | Current Version | Previous Version | Graphics & Text | Print | Product List | Glossary On
Versions: 1 2 3 4 5 6 7 8 9 10 11 12 13 14 15 16 17 18 19 20 21 22 23 24 25 26 27 28 29 30 31 32 33 34 35 36 37 38 39 40 41 42 43 44 45 46 47 48 49 50
000
ASUS43 KLOT 291409
RWRIL

ILLINOIS REGIONAL WEATHER ROUNDUP
NATIONAL WEATHER SERVICE CHICAGO/ROMEOVILLE IL
900 AM CDT MON MAY 29 2017

NOTE: "FAIR" INDICATES FEW OR NO CLOUDS BELOW 12,000 FEET WITH NO
SIGNIFICANT WEATHER AND/OR OBSTRUCTIONS TO VISIBILITY.

* THESE STATIONS ARE NOT UNDER NWS QUALITY CONTROL. THEY ALSO MAY NOT
  REPORT WEATHER SUCH AS PRECIPITATION OR FOG.

ILZ001-002-007-009-015-016-024-291500-
NORTHWEST ILLINOIS

CITY           SKY/WX    TMP DP  RH WIND       PRES   REMARKS
MOLINE         CLOUDY    66  47  50 W8        29.87R
STERLING*      CLOUDY    64  53  67 W12       29.85S
SAVANNA*       CLOUDY    62  49  61 W10       29.86S
$$

ILZ003-004-008-010-011-017-018-291500-
NORTH CENTRAL ILLINOIS

CITY           SKY/WX    TMP DP  RH WIND       PRES   REMARKS
ROCKFORD       MOSUNNY   67  48  50 W10       29.82F
FREEPORT*      PTSUNNY   63  49  60 W13       29.84S
ROCHELLE*      MOSUNNY   66  51  57 W13       29.84R
DE KALB*       PTSUNNY   66  50  56 W14       29.85R
PERU*          SUNNY     66  50  55 W9        29.87R
$$

ILZ005-006-012>014-019>023-291500-
NORTHEAST ILLINOIS

CITY           SKY/WX    TMP DP  RH WIND       PRES   REMARKS
CHICAGO-OHARE  MOSUNNY   70  46  42 W9        29.80R
CHICAGO-MIDWAY MOSUNNY   71  47  42 W10       29.80S
AURORA         MOSUNNY   70  49  47 W16       29.83R
LANSING*       SUNNY     70  53  54 W10       29.83R
JOLIET*        SUNNY     71  50  48 W6        29.84R
WAUKEGAN       SUNNY     67  47  48 W9G17     29.77R
DUPAGE AIRPORT MOSUNNY   69  48  47 W16       29.81R
KANKAKEE*      SUNNY     72  51  48 W10       29.86R
WHEELING       SUNNY     70  46  42 W13G25    29.80R
MORRIS*        SUNNY     68  49  49 W12       29.83R
ROMEOVILLE*    SUNNY     69  53  57 W10       29.83R
NORTHERLY ISL    N/A     69  42  37 W9          N/A
$$

LMZ740>746-291500-
SOUTHERN LAKE MICHIGAN

STATION/POSITION SKY/WX   TEMP    WIND        PRES    VSBY  WAVE
                          AIR SEA DIR/SP/G                  HT/PER
                          (F)     (DEG/KT/KT) (MB)    (MI)  (FT/S)
SOUTHERN BUOY              52 46  260/ 12/ 12 1007.7          1
WILMETTE HARBOR            63 55  260/ 12/ 17   N/A           1/ 2
HARRISON CRIB              69     260/ 17/ 18   N/A
BURNHAM HARBOR             70     220/  4/ 11   N/A
CALUMET HARBOR             70     240/  5/  9 1009.0R
BURNS HARBOR               66     240/ 10/ 12 1010.2S
MICHIGAN CITY              64     220/ 17/ 17   N/A
MICHIGAN CITY 6N           60 56  230/ 10/ 12   N/A           1/ 2
ST. JOSEPH                 61 59  240/ 12/ 16 1009.4          2/ 3
$$

ILZ025>027-034>036-040-047-049-050-058-095>099-291500-
WEST-CENTRAL ILLINOIS

CITY           SKY/WX    TMP DP  RH WIND       PRES   REMARKS
QUINCY         SUNNY     70  52  52 SW9       29.90R
GALESBURG*     MOSUNNY   67  49  53 NW8       29.88R
MACOMB*        MOSUNNY   69  49  47 W12       29.92R
JACKSONVILLE*  SUNNY     70  55  57 SW8       29.90R
PITTSFIELD*    SUNNY     71  55  56 SW8       29.91S
$$

ILZ028>032-037-038-041>044-048-051>054-059>061-291500-
CENTRAL ILLINOIS

CITY           SKY/WX    TMP DP  RH WIND       PRES   REMARKS
PONTIAC        SUNNY     70  52  53 W7        29.88R
BLOOMINGTON    SUNNY     71  53  52 SW10      29.89R
DECATUR        SUNNY     71  54  54 SW8       29.89S
PEORIA         SUNNY     70  52  52 W7        29.88R
LACON*         SUNNY     68  51  53 W3        29.87R
LINCOLN*       SUNNY     74  55  50 SW3       29.88R
SPRINGFIELD    SUNNY     73  56  54 SW8       29.89S
TAYLORVILLE    SUNNY     70  57  63 SW7       29.91S
$$

ILZ033-039-045-046-055>057-062-063-291500-
EAST-CENTRAL ILLINOIS

CITY           SKY/WX    TMP DP  RH WIND       PRES   REMARKS
CHAMPAIGN      SUNNY     73  53  49 SW8       29.89R
RANTOUL*       SUNNY     75  55  49 W6        29.87S
MATTOON        SUNNY     71  58  63 SW7       29.90R
PARIS*         SUNNY     71  58  63 SW6       29.91R
$$

ILZ079-100>102-291500-
SOUTHWEST ILLINOIS

CITY           SKY/WX    TMP DP  RH WIND       PRES   REMARKS
ALTON          MOSUNNY   68  57  68 W6        29.94R
BELLEVILLE     SUNNY     70  57  62 W8        29.94R
CAHOKIA*       SUNNY     71  54  54 SW5       29.94R
SPARTA*        MOSUNNY   69  57  66 W6        29.96S
$$

ILZ064>066-069>071-074>076-080>082-084>086-088>090-092>094-291500-
SOUTH-CENTRAL ILLINOIS

CITY           SKY/WX    TMP DP  RH WIND       PRES   REMARKS
CARBONDALE     SUNNY     73  59  61 W8        29.95S
CAIRO*         SUNNY     71  61  71 S6        29.97S
EFFINGHAM*     SUNNY     71  60  69 SW3       29.93S
MARION         MOSUNNY   73  61  64 SW6       29.96S
MT. VERNON       N/A     71  60  68 SW7       29.94S
CENTRALIA*     SUNNY     71  59  66 SW9       29.93R
SALEM*         SUNNY     72  57  60 SW8       29.93S
METROPOLIS*    SUNNY     71  65  80 CALM      29.98S
$$

ILZ067-068-072-073-078-083-087-091-291500-
SOUTHEAST ILLINOIS

CITY           SKY/WX    TMP DP  RH WIND       PRES   REMARKS
LAWRENCEVILLE  SUNNY     73  59  61 SW8       29.93S
FLORA*         SUNNY     72  59  63 SW7       29.93S
FAIRFIELD*     SUNNY     71  59  65 SW5       29.93S
HARRISBURG*    SUNNY     73  62  68 SW6       29.96R
ROBINSON*      SUNNY     71  57  62 W7        29.93R
CARMI*         SUNNY     73  60  63 SW3       29.94S
$$

ABBREVIATIONS USED IN REMARKS
   TC - TEMPERATURE IN CELSIUS
  WCI - WIND CHILL INDEX
   HX - HEAT INDEX
  VSB - VISIBILITY
$$





USA.gov is the U.S. government's official web portal to all federal, state and local government web resources and services.